This demonstration page uses our WeatherBlox Daily Observations layout. Learn more.

Left ArrowRight Arrow

39.01783, -85.05884

Hourly Observations for August 23, 2021

Temp ( °F °C ) Dew Point ( °F °C ) Humidity (%) Winds ( mph kmh ) Pressure ( in mb ) Visibility ( mi km ) Precip ( " mm )
12:52 am 00:52 Clear 76 24.4 67 19.4 74 74 W 5 7 29.94 1014 10 16 0.00 0.00
1:52 am 01:52 Clear 74 23.3 66 18.9 76 76 Calm 29.95 1014 10 16 0.00 0.00
2:52 am 02:52 Clear 72 22.2 66 18.9 82 82 Calm 29.95 1014 10 16 0.00 0.00
3:52 am 03:52 Clear 73 22.8 67 19.4 81 81 Calm 29.95 1014 9 14 0.00 0.00
4:52 am 04:52 Clear 72 22.2 67 19.4 84 84 Calm 29.95 1014 9 14 0.00 0.00
5:52 am 05:52 Clear 71 21.7 66 18.9 84 84 Calm 29.96 1015 9 14 0.00 0.00
6:52 am 06:52 Clear 70 21.1 66 18.9 87 87 Calm 29.97 1015 7 11 0.00 0.00
7:52 am 07:52 Sunny 70 21.1 67 19.4 90 90 Calm 29.98 1015 7 11 0.00 0.00
8:52 am 08:52 Sunny 77 25 67 19.4 71 71 Calm 29.97 1015 8 13 0.00 0.00
9:52 am 09:52 Sunny 82 27.8 69 20.6 65 65 Calm 29.98 1015 9 14 0.00 0.00
10:52 am 10:52 Sunny 86 30 69 20.6 57 57 W 7 11 29.99 1016 10 16 0.00 0.00
11:52 am 11:52 Mostly Sunny 88 31.1 69 20.6 54 54 W 9 15 29.99 1016 10 16 0.00 0.00
12:52 pm 12:52 Mostly Sunny 89 31.7 68 20 50 50 WNW 7 11 29.98 1015 10 16 0.00 0.00
1:52 pm 13:52 Partly Cloudy 90 32.2 68 20 48 48 W 12 19 29.98 1015 10 16 0.00 0.00
2:52 pm 14:52 Mostly Cloudy 91 32.8 67 19.4 45 45 WNW 10 17 29.97 1015 10 16 0.00 0.00
3:52 pm 15:52 Mostly Cloudy 91 32.8 68 20 47 47 NW 12 19 29.96 1015 10 16 0.00 0.00
4:52 pm 16:52 Mostly Cloudy 91 32.8 68 20 47 47 W 7 11 29.95 1014 10 16 0.00 0.00
5:52 pm 17:52 Mostly Cloudy 90 32.2 67 19.4 47 47 WNW 9 15 29.94 1014 10 16 0.00 0.00
6:52 pm 18:52 Mostly Cloudy 89 31.7 68 20 50 50 WNW 7 11 29.94 1014 10 16 0.00 0.00
7:52 pm 19:52 Mostly Cloudy 87 30.6 69 20.6 55 55 WNW 6 9 29.95 1014 9 14 0.00 0.00
8:52 pm 20:52 Mostly Cloudy 81 27.2 70 21.1 69 69 Calm 29.96 1015 10 16 0.00 0.00
9:52 pm 21:52 Partly Cloudy 81 27.2 70 21.1 69 69 Calm 29.97 1015 10 16 0.00 0.00
10:52 pm 22:52 Partly Cloudy 77 25 70 21.1 79 79 Calm 29.98 1015 10 16 0.00 0.00
11:52 pm 23:52 Partly Cloudy 78 25.6 69 20.6 74 74 Calm 29.98 1015 10 16 0.00 0.00

Powered by AerisWeather